Printer-friendly version
Follow the MPC on Twitter Follow the MPC on Facebook The MPC blog
Minor Planet Center

MPEC 2009-B35 : 2009 BQ5

The following Minor Planet Electronic Circular may be linked-to from your own Web pages, but must not otherwise be redistributed electronically.

A form allowing access to any MPEC is at the bottom of this page.


Read MPEC 2009-B34 Read MPEC 2009-B36


M.P.E.C. 2009-B35                                Issued 2009 Jan. 21, 17:09 UT

     The Minor Planet Electronic Circulars contain information on unusual
         minor planets and routine data on comets.  They are published
   on behalf of Commission 20 of the International Astronomical Union by the
          Minor Planet Center, Smithsonian Astrophysical Observatory,
                          Cambridge, MA 02138, U.S.A.

             Prepared using the Tamkin Foundation Computer Network

                              MPC@CFA.HARVARD.EDU
          URL http://www.cfa.harvard.edu/iau/mpc.html  ISSN 1523-6714

                                   2009 BQ5

Observations:
     K09B05Q* C2009 01 20.43421 08 43 45.55 +36 02 46.5          20.1 V EB035703
     K09B05Q  C2009 01 20.44080 08 43 40.26 +36 02 08.5          19.7 V EB035703
     K09B05Q  C2009 01 20.44729 08 43 34.75 +36 01 34.5          20.0 V EB035703
     K09B05Q  C2009 01 20.45387 08 43 29.35 +36 00 57.9          19.8 V EB035703
     K09B05Q  C2009 01 20.48929 08 42 59.58 +35 57 37.5          19.2 V EB035703
     K09B05Q  C2009 01 20.49184 08 42 57.88 +35 57 25.0          21.0 V EB035703
     K09B05Q  C2009 01 20.49440 08 42 55.62 +35 57 09.4          20.3 V EB035703
     K09B05Q  C2009 01 20.49696 08 42 53.71 +35 56 56.7          20.4 V EB035703
     K09B05Q  C2009 01 20.97969 08 36 45.44 +35 13 57.2                 EB035J95
     K09B05Q  C2009 01 20.98458 08 36 41.71 +35 13 32.0                 EB035J95
     K09B05Q  C2009 01 20.98949 08 36 38.03 +35 13 06.6          20.0 R EB035J95
     K09B05Q  C2009 01 21.14938 08 34 44.70 +34 59 20.9          19.3 V EB035703
     K09B05Q  C2009 01 21.15022 08 34 43.96 +34 59 16.8          19.5 V EB035703
     K09B05Q  C2009 01 21.27216408 33 13.21 +34 48 59.5          20.2 V EB035H55
     K09B05Q  C2009 01 21.27493908 33 11.19 +34 48 45.2          20.4 V EB035H55
     K09B05Q  C2009 01 21.27771208 33 09.13 +34 48 30.3          20.3 V EB035H55
     K09B05Q  C2009 01 21.28048508 33 07.16 +34 48 16.5          20.2 V EB035H55
     K09B05Q  C2009 01 21.28345208 33 04.98 +34 48 01.5          20.4 V EB035H55
     K09B05Q  C2009 01 21.28352 08 33 06.60 +34 48 08.0          20.2 V EB035703
     K09B05Q  C2009 01 21.28412 08 33 06.05 +34 48 05.1          20.0 V EB035703
     K09B05Q  C2009 01 21.28473 08 33 05.80 +34 48 02.4          19.9 V EB035703
     K09B05Q  C2009 01 21.28535 08 33 05.17 +34 47 58.1          20.0 V EB035703
     K09B05Q  C2009 01 21.28843 08 33 02.68 +34 47 41.4          19.4 R EB035H01
     K09B05Q  C2009 01 21.29219 08 32 59.94 +34 47 22.2          19.3 R EB035H01
     K09B05Q  C2009 01 21.29386 08 32 58.73 +34 47 13.9          19.3 R EB035H01
     K09B05Q  C2009 01 21.29592 08 32 57.24 +34 47 03.3          19.2 R EB035H01
     K09B05Q  C2009 01 21.29800 08 32 55.71 +34 46 52.7          19.4 R EB035H01
     K09B05Q  C2009 01 21.53467 08 30 08.67 +34 26 35.5          19.5 R EB035H01
     K09B05Q  C2009 01 21.53959 08 30 05.33 +34 26 10.0          19.7 R EB035H01

Observer details:
703 Catalina Sky Survey.  Observer A. Boattini.  Measurers E. C. Beshore,
    A. Boattini, G. J. Garradd, A. R. Gibbs, A. D. Grauer, R. E. Hill,
    R. A. Kowalski, S. M. Larson, R. H. McNaught.  0.68-m Schmidt + CCD.
H01 Magdalena Ridge Observatory, Socorro.  Observers W. H. Ryan, E. V. Ryan.
    Measurer W. H. Ryan.  2.4-m f/8.9 reflector + CCD.
H55 Astronomical Research Observatory, Charleston.  Observer R. Holmes.
    Measurer H. Devore.  0.61-m f/4.0 astrograph + CCD.
J95 Great Shefford.  Observer P. Birtwhistle.  0.40-m f/6.0 Schmidt-Cassegrain
    + CCD.

Orbital elements:
2009 BQ5                                                 Earth MOID = 0.0617 AU
Epoch 2008 Nov. 30.0 TT = JDT 2454800.5                 MPC
M   7.68771              (2000.0)            P               Q
n   0.72351288     Peri.   45.80047     +0.98826662     +0.04307779
a   1.2288679      Node   311.15482     -0.11251051     +0.85416624
e   0.6473122      Incl.   11.22268     +0.10329802     +0.51821264
P   1.36           H   23.2           G   0.15           U   9
Residuals in seconds of arc
090120 703  1.4-  0.0     090120 J95  0.1+  0.3+    090121 703  1.6+  0.7+
090120 703  1.4+  1.3-    090121 703  1.4+  1.0+    090121 703  0.6-  0.4-
090120 703  0.4+  0.9+    090121 703  0.1-  1.1+    090121 H01  0.3-  0.3-
090120 703  1.5+  1.0+    090121 H55  0.1+  0.2+    090121 H01  0.3-  0.4-
090120 703 (3.7-  1.5-)   090121 H55  0.1+  0.1+    090121 H01  0.3-  0.3-
090120 703  1.2+  0.2+    090121 H55  0.4-  0.6-    090121 H01  0.2-  0.4-
090120 703  0.7-  1.0-    090121 H55  0.2+  0.2-    090121 H01  0.4-  0.5-
090120 703  1.6+  0.6+    090121 H55  0.1-  0.1-    090121 H01  0.2+  0.3-
090120 J95  0.3-  0.1+    090121 703  0.6+  0.2+    090121 H01  0.1+  0.3-
090120 J95  0.5-  0.2+    090121 703  0.8-  0.3+

Ephemeris:
2009 BQ5                 a,e,i = 1.23, 0.65, 11                  q = 0.4334
Date    TT    R. A. (2000) Decl.     Delta      r     Elong.  Phase     V
2009 01 19    09 06.06   +38 19.0    0.121    1.097   157.6    20.0    19.8
2009 01 20    08 49.95   +36 42.9    0.130    1.108   161.1    16.7    19.9
2009 01 21    08 36.50   +35 12.6    0.139    1.119   163.9    14.2    20.0
2009 01 22    08 25.20   +33 49.0    0.149    1.130   165.8    12.4    20.1
2009 01 23    08 15.63   +32 32.5    0.160    1.140   166.9    11.3    20.2
2009 01 24    08 07.46   +31 22.7    0.170    1.151   167.2    10.9    20.3
2009 01 25    08 00.44   +30 19.1    0.181    1.162   166.9    11.1    20.5
2009 01 26    07 54.37   +29 21.3    0.192    1.172   166.1    11.6    20.7
2009 01 27    07 49.10   +28 28.7    0.204    1.183   165.0    12.4    20.9
2009 01 28    07 44.50   +27 40.7    0.215    1.193   163.8    13.3    21.0
2009 01 29    07 40.46   +26 56.8    0.227    1.203   162.4    14.3    21.2
2009 01 30    07 36.91   +26 16.7    0.239    1.214   161.0    15.3    21.4
2009 01 31    07 33.78   +25 39.9    0.251    1.224   159.6    16.3    21.5
2009 02 01    07 31.01   +25 06.0    0.263    1.234   158.2    17.3    21.7
2009 02 02    07 28.56   +24 34.8    0.276    1.244   156.8    18.2    21.8
2009 02 03    07 26.40   +24 06.0    0.288    1.254   155.4    19.1    22.0
2009 02 04    07 24.49   +23 39.3    0.301    1.263   154.1    20.0    22.1
2009 02 05    07 22.79   +23 14.6    0.314    1.273   152.7    20.8    22.2
2009 02 06    07 21.30   +22 51.6    0.327    1.283   151.5    21.5    22.4
2009 02 07    07 19.99   +22 30.2    0.340    1.292   150.2    22.3    22.5
2009 02 08    07 18.84   +22 10.3    0.353    1.302   149.0    23.0    22.6

Timothy B. Spahr             (C) Copyright 2009 MPC           M.P.E.C. 2009-B35

Read MPEC 2009-B34 Read MPEC 2009-B36


MPEC number:

Enter an MPEC number in one of the following forms:

  • 1997-B01 (the full form)
  • J97B01 (the packed version of the full form)
  • B01 (the abbreviated form)

Valid HTML 4.01!